Regional Weather Roundup
Issued by NWS

Home | Current Version | Previous Version | Text Only | Print | Product List | Glossary On
Versions: 1 2 3 4 5 6 7 8 9 10 11 12 13 14 15 16 17 18 19 20 21 22 23 24 25 26 27 28 29 30 31 32 33 34 35 36 37 38 39 40 41 42 43 44 45 46 47 48 49 50
215
ASUS43 KLOT 211108
RWRIL

ILLINOIS REGIONAL WEATHER ROUNDUP
NATIONAL WEATHER SERVICE CHICAGO/ROMEOVILLE IL
500 AM CST SAT JAN 21 2017

NOTE: "FAIR" INDICATES FEW OR NO CLOUDS BELOW 12,000 FEET WITH NO
SIGNIFICANT WEATHER AND/OR OBSTRUCTIONS TO VISIBILITY.

* THESE STATIONS ARE NOT UNDER NWS QUALITY CONTROL. THEY ALSO MAY NOT
  REPORT WEATHER SUCH AS PRECIPITATION OR FOG.

ILZ001-002-007-009-015-016-024-211200-
NORTHWEST ILLINOIS

CITY           SKY/WX    TMP DP  RH WIND       PRES   REMARKS
MOLINE         CLEAR     47  44  90 S8        29.43F
STERLING*      FOG       45  45 100 SE3       29.48F VSB 1/4
SAVANNA*       CLOUDY    46  45  99 SE8       29.46S FOG
$$

ILZ003-004-008-010-011-017-018-211200-
NORTH CENTRAL ILLINOIS

CITY           SKY/WX    TMP DP  RH WIND       PRES   REMARKS
ROCKFORD       FOG       45  44  97 SE7       29.50F VSB 3/4
FREEPORT*      FOG       39  39 100 E5        29.49F VSB 1/4
ROCHELLE*      CLOUDY    45  45 100 S8        29.50F FOG
DE KALB*       FOG       46  46 100 S10       29.52F VSB 1/4
$$

ILZ005-006-012>014-019>023-211200-
NORTHEAST ILLINOIS

CITY           SKY/WX    TMP DP  RH WIND       PRES   REMARKS
CHICAGO-OHARE  CLOUDY    47  46  97 S8        29.53S FOG
CHICAGO-MIDWAY CLOUDY    48  47  96 S6G18     29.55F FOG
AURORA         CLOUDY    48  47  96 S10       29.52F FOG
LANSING*       CLOUDY    48  48 100 S8        29.56F
JOLIET*        CLOUDY    49  48  99 SE3       29.54S FOG
WAUKEGAN       FOG       40  40 100 SE3       29.53S VSB 1/4
DUPAGE AIRPORT CLOUDY    49  46  90 S13       29.52S FOG
KANKAKEE*      CLEAR     48  48  97 S8        29.56F
WHEELING       CLOUDY    47  46  97 SE7       29.54F FOG
MORRIS*        FOG       44  43  97 S5        29.52S VSB 1/2
NORTHERLY ISL    N/A     37  36  96 CALM        N/A
$$

LMZ740>746-211200-
SOUTHERN LAKE MICHIGAN

STATION/POSITION SKY/WX   TEMP    WIND        PRES    VSBY  WAVE
                          AIR SEA DIR/SP/G                  HT/PER
                          (F)     (DEG/KT/KT) (MB)    (MI)  (FT/S)
HARRISON CRIB              42     170/ 11/ 11   N/A
BURNHAM HARBOR             37      40/  1/  4   N/A
CALUMET HARBOR             48     160/  6/  9 1000.4F
BURNS HARBOR               51     160/ 10/ 16 1002.0F
$$

ILZ025>027-034>036-040-047-049-050-058-095>099-211200-
WEST-CENTRAL ILLINOIS

CITY           SKY/WX    TMP DP  RH WIND       PRES   REMARKS
QUINCY         CLEAR     50  43  77 S10       29.45F
GALESBURG*     MOCLDY    43  43 100 SE7       29.46F FOG
MACOMB*        CLEAR     44  44 100 S9        29.48F FOG
JACKSONVILLE*  CLEAR     50  46  87 S13       29.50S
PITTSFIELD*    CLEAR     49  45  84 S7        29.48F
$$

ILZ028>032-037-038-041>044-048-051>054-059>061-211200-
CENTRAL ILLINOIS

CITY           SKY/WX    TMP DP  RH WIND       PRES   REMARKS
PONTIAC        CLEAR     46  46 100 S10       29.53F FOG
BLOOMINGTON    CLEAR     46  45  96 S14       29.53F
DECATUR        CLEAR     49  48  97 S14       29.54F
PEORIA         CLEAR     47  46  97 S9        29.49F FOG
LACON*         CLEAR     46  46  99 S7        29.48F
LINCOLN*       CLEAR     49  48  99 S9        29.52F
SPRINGFIELD    CLEAR     52  48  86 S14       29.52F
TAYLORVILLE    PTCLDY    50  48  92 S10G18    29.54F
$$

ILZ033-039-045-046-055>057-062-063-211200-
EAST-CENTRAL ILLINOIS

CITY           SKY/WX    TMP DP  RH WIND       PRES   REMARKS
CHAMPAIGN      CLEAR     49  46  90 S13       29.57F
RANTOUL*       FOG       46  46  99 SE8       29.57F VSB 1/2
MATTOON        PTCLDY    49  48  97 S9        29.58F
PARIS*         CLEAR     48  48  99 S7        29.61F
$$

ILZ079-100>102-211200-
SOUTHWEST ILLINOIS

CITY           SKY/WX    TMP DP  RH WIND       PRES   REMARKS
ALTON          PTCLDY    52  46  82 S12       29.54F
BELLEVILLE     CLEAR     49  49  99 VRB3      29.55F
CAHOKIA*       PTCLDY    51  45  79 CALM      29.53F
SPARTA*        CLEAR     53  48  83 S9        29.59F
$$

ILZ064>066-069>071-074>076-080>082-084>086-088>090-092>094-211200-
SOUTH-CENTRAL ILLINOIS

CITY           SKY/WX    TMP DP  RH WIND       PRES   REMARKS
CARBONDALE     CLEAR     49  49 100 SE5       29.62S
CAIRO*         CLOUDY    56  52  87 S8        29.64R
EFFINGHAM*     CLEAR     49  49 100 SE6       29.60F
MARION         PTCLDY    54  52  94 S7        29.64R
MT. VERNON     PTCLDY    48  47  96 S5        29.61F
CENTRALIA*     CLEAR     53  50  90 S12       29.58F
SALEM*         CLEAR     56  48  76 S10       29.58F
METROPOLIS*    CLOUDY    53  51  93 CALM      29.66S
$$

ILZ067-068-072-073-078-083-087-091-211200-
SOUTHEAST ILLINOIS

CITY           SKY/WX    TMP DP  RH WIND       PRES   REMARKS
LAWRENCEVILLE  PTCLDY    48  48 100 S7        29.64F
FLORA*         PTCLDY    48  47  96 S6        29.61S
FAIRFIELD*     PTCLDY    50  49  96 S5        29.62S
HARRISBURG*    PTCLDY    51  49  95 CALM      29.64S
ROBINSON*      PTCLDY    48  48 100 S6        29.64F
CARMI*         CLOUDY    49  49  99 SE8       29.64S
$$

ABBREVIATIONS USED IN REMARKS
   TC - TEMPERATURE IN CELSIUS
  WCI - WIND CHILL INDEX
   HX - HEAT INDEX
  VSB - VISIBILITY
$$





USA.gov is the U.S. government's official web portal to all federal, state and local government web resources and services.